Theta_e
310 304 301 303 306 308 311 313 313 314 314 313 314 314 312 313 311 313 315 327 332 327 323 323 323 322 325 330 335 338 341 340 339 339 340 340 341 340 341 341 342 343 343 345 346 349 349 349 350 350 350 350 349 350 351 354 354 355 355 356 357 358 358 357 356 357 356 356 355 357 355 354 357 362 363 362 363 362 361 365 365 366 363 367 368 369
309 302 303 305 308 311 313 316 316 314 314 313 312 312 312 312 310 311 312 318 326 323 320 321 321 320 322 327 333 337 338 336 338 338 339 340 340 340 340 341 343 344 345 347 347 349 350 350 350 349 349 350 347 350 352 354 354 355 355 356 358 358 359 357 357 357 357 360 357 356 356 355 356 359 359 360 363 360 362 366 367 366 365 365 366 368
302 300 305 307 310 313 316 316 317 314 313 313 312 312 312 313 313 312 312 314 320 318 317 316 316 317 320 324 331 333 335 337 338 339 340 341 340 340 340 341 343 344 344 346 347 349 349 350 350 348 348 348 349 351 351 354 354 355 355 356 360 358 359 359 358 358 358 360 361 359 358 357 355 360 361 360 361 362 361 363 366 367 368 366 366 367
299 302 306 310 312 313 315 316 315 313 313 312 311 311 309 313 310 306 314 316 318 317 315 318 313 317 319 323 329 335 335 336 339 340 341 340 341 340 338 342 342 342 344 345 346 346 348 350 351 349 349 349 348 351 351 352 353 354 356 358 359 360 360 360 360 361 360 361 364 364 363 364 361 358 360 363 366 363 363 361 364 367 369 367 366 366
303 306 310 312 312 312 312 314 312 311 309 312 312 311 311 310 311 311 308 312 313 314 315 314 313 313 318 320 324 333 336 335 337 339 340 341 342 341 345 342 343 343 344 345 346 346 347 348 349 349 351 351 350 350 351 351 351 352 355 359 361 360 360 362 362 362 362 362 363 363 365 364 362 362 360 358 358 360 361 361 363 365 368 367 367 367
305 311 312 310 310 311 312 311 311 310 308 310 313 313 313 312 311 310 311 309 309 308 315 312 307 309 318 319 321 329 332 333 337 337 336 339 341 342 340 341 344 344 346 346 346 346 346 348 350 350 351 350 351 352 352 351 351 354 355 360 362 361 361 361 364 364 363 362 360 357 355 354 354 353 353 352 354 355 356 356 360 365 365 365 368 369
308 313 311 309 308 308 310 311 312 313 309 308 310 315 313 313 312 311 309 309 306 305 310 313 306 305 314 316 320 327 330 331 335 336 337 339 339 338 341 342 343 342 342 343 346 347 346 348 348 349 351 351 350 352 354 353 353 355 357 361 363 362 362 362 364 364 363 361 357 358 355 354 354 353 354 358 356 354 356 359 361 364 364 368 366 367
309 311 309 308 307 308 308 309 313 312 310 308 314 315 315 313 311 311 311 310 309 312 310 310 310 307 307 314 325 328 328 330 333 334 337 338 340 341 341 342 341 343 344 345 346 346 347 348 348 348 350 351 350 353 354 354 354 358 359 363 364 363 362 363 365 365 363 359 357 358 357 355 354 352 354 359 359 359 359 358 361 363 363 367 367 367
310 308 309 308 308 307 307 311 315 314 310 310 314 314 312 312 312 312 311 310 310 308 305 309 312 306 307 319 325 325 325 328 330 333 336 338 340 340 342 343 345 346 346 345 344 346 346 347 348 349 350 351 351 352 353 354 355 358 361 364 366 364 364 364 366 366 363 360 358 359 357 356 357 356 356 359 360 358 360 359 360 362 362 365 367 367
310 311 311 312 310 307 312 315 316 314 309 313 314 314 314 313 311 311 310 309 309 305 302 307 310 304 306 315 320 324 322 321 323 327 333 337 339 340 340 342 344 346 347 347 346 347 347 348 349 350 351 351 351 352 354 355 356 358 362 363 364 364 364 365 367 367 365 361 361 358 357 358 357 357 357 357 356 358 360 358 361 363 364 363 364 366
311 314 315 313 310 312 314 316 316 315 314 316 314 311 310 310 310 311 310 310 307 301 304 307 309 307 302 312 318 318 317 324 325 327 329 337 340 341 343 343 343 344 346 346 347 347 347 349 349 350 349 351 351 352 353 354 356 359 362 364 364 365 365 366 367 367 365 362 361 360 358 358 359 359 358 356 357 357 359 358 358 361 363 365 364 363
308 309 309 308 310 311 313 311 314 316 315 313 310 308 307 306 309 308 307 309 300 298 305 308 307 308 301 309 317 323 326 326 326 325 328 328 332 340 344 343 344 345 345 346 346 346 345 347 349 350 350 350 351 351 352 354 355 358 361 364 364 366 366 366 367 367 364 361 361 360 360 359 361 361 357 358 356 357 358 357 357 359 361 363 364 366
303 306 308 306 309 308 310 307 307 311 313 311 309 307 301 299 300 297 301 297 298 298 305 308 308 305 305 313 318 321 324 327 328 328 329 329 330 333 337 345 346 346 345 346 346 346 346 346 347 347 349 351 352 351 353 353 354 357 361 364 364 365 366 366 366 366 365 363 361 360 360 361 362 361 361 359 357 358 358 357 358 360 360 362 362 362
300 304 303 304 306 307 308 303 303 303 308 308 306 304 300 297 295 292 297 300 299 303 307 306 309 304 313 316 321 322 326 328 329 330 331 332 332 334 335 338 345 346 347 346 346 346 347 347 347 348 349 350 351 351 352 353 355 357 359 363 364 365 366 367 365 365 365 364 363 362 361 361 361 361 362 359 356 357 357 358 358 358 358 359 361 360
294 294 300 301 300 306 306 305 305 305 307 307 310 307 303 303 297 293 297 294 296 299 303 309 303 302 306 314 324 325 327 328 330 331 333 333 334 336 339 338 341 346 347 348 348 346 347 348 349 348 348 350 351 351 351 353 355 357 359 362 364 365 366 366 365 365 364 363 363 363 362 361 362 360 360 359 358 358 358 356 357 359 357 357 360 359
298 297 300 304 304 305 303 306 306 306 307 309 310 310 305 303 308 298 301 300 299 300 300 303 302 309 312 322 325 327 326 327 328 329 331 331 333 335 336 338 340 343 345 346 346 347 349 349 350 349 349 350 351 353 352 353 355 356 359 363 364 365 365 366 366 365 364 364 363 364 364 361 363 362 361 360 360 360 359 360 358 359 361 359 360 364
299 295 301 303 305 304 304 306 306 306 299 306 307 302 305 310 308 304 304 304 305 302 299 307 306 310 317 320 322 324 324 325 326 326 327 329 331 334 333 335 337 339 341 346 346 346 350 350 350 350 350 350 350 351 352 354 356 357 359 360 363 365 365 365 366 364 365 365 364 364 363 361 361 361 360 357 359 357 359 361 360 358 359 359 361 362
298 295 301 302 300 305 306 306 306 307 307 307 301 305 309 311 309 305 298 301 300 296 299 303 302 305 304 304 319 320 321 322 324 325 326 328 330 330 332 334 335 336 339 341 345 349 350 351 351 350 349 350 351 352 353 355 355 358 359 360 361 362 363 363 364 363 363 365 364 364 363 363 361 359 358 357 358 359 358 359 361 359 357 357 357 358
303 295 298 301 302 304 306 305 305 306 308 305 304 311 303 298 298 304 303 295 294 294 298 301 304 306 308 310 315 316 317 319 322 324 324 324 326 328 330 332 335 336 337 339 342 346 348 349 350 352 350 350 351 354 354 353 354 356 358 358 358 360 361 362 361 362 363 364 362 362 363 362 361 359 359 358 359 360 358 356 357 357 355 357 360 360
303 297 296 302 302 304 305 304 299 302 306 307 308 306 309 306 303 300 301 304 301 295 297 299 304 302 311 312 314 314 317 319 320 322 322 323 325 326 329 331 334 335 335 339 340 343 346 348 349 350 351 350 351 351 352 352 353 353 356 357 356 358 361 361 361 362 361 362 361 360 363 363 363 362 360 360 360 357 358 357 356 357 353 356 357 359
302 304 294 299 303 303 299 301 299 300 301 302 303 303 304 305 307 307 305 302 300 298 298 299 297 303 310 316 315 317 318 320 320 320 321 322 324 326 328 330 333 335 336 339 342 342 345 348 348 350 351 351 352 351 353 351 352 352 354 354 355 355 357 358 358 360 362 362 361 362 362 361 362 360 360 359 359 358 359 359 359 355 355 357 357 358
303 301 297 298 299 299 297 301 300 300 301 302 303 302 303 302 301 298 298 305 303 300 297 299 297 306 312 318 317 318 320 320 321 322 321 321 322 325 326 328 331 333 337 339 339 341 342 347 349 349 351 351 349 351 351 351 351 353 353 352 353 354 354 355 356 359 362 362 362 361 361 361 361 362 361 358 358 358 358 358 358 358 358 355 358 358
305 304 301 297 298 297 299 300 303 302 302 302 303 300 303 303 304 301 294 299 302 303 304 305 303 304 315 319 319 319 320 320 321 322 320 320 322 323 324 325 329 332 334 335 336 337 338 340 345 347 349 350 350 350 350 351 350 351 351 351 352 352 353 354 355 357 361 361 362 362 361 361 361 362 360 358 356 355 355 356 357 359 358 355 354 359
306 301 297 296 299 300 302 303 303 303 302 301 302 303 302 301 301 301 302 306 301 302 299 301 300 305 313 319 320 320 322 322 323 322 321 320 319 320 322 324 325 328 331 333 334 336 336 337 339 342 345 349 350 351 350 351 351 351 351 351 351 351 352 354 355 356 359 360 360 361 361 361 360 359 359 356 355 354 354 352 355 358 357 356 352 352
299 301 301 295 294 295 297 301 300 302 302 300 299 300 301 302 302 303 305 308 302 302 302 300 296 300 310 318 320 320 320 320 321 321 321 319 319 319 320 322 323 326 327 329 331 332 333 334 334 335 339 344 348 349 351 351 351 350 351 351 351 351 352 354 356 355 357 358 359 358 359 359 358 358 358 356 354 354 354 353 351 354 356 355 353 351
301 300 300 293 291 288 288 289 293 295 297 299 300 299 300 299 300 302 300 303 297 304 307 302 300 306 312 317 317 319 319 319 321 321 322 321 319 318 319 319 321 322 324 325 327 329 329 330 331 333 335 338 342 346 350 350 349 350 351 351 352 351 353 353 354 355 355 357 357 358 358 358 358 357 357 357 355 354 354 353 352 352 354 356 354 353
300 301 301 298 297 295 296 297 298 300 299 297 296 297 297 299 300 302 303 302 298 303 303 304 306 308 309 313 315 316 317 317 317 319 319 320 320 320 319 318 318 319 321 322 324 325 328 328 328 331 333 335 338 342 345 348 347 349 352 352 352 352 352 353 354 355 354 355 356 357 357 357 357 357 357 357 357 355 355 354 352 352 351 355 355 352
301 297 297 299 298 298 298 297 297 299 297 297 296 296 297 297 299 300 300 299 302 302 297 303 311 308 308 311 314 315 316 317 317 318 318 319 319 319 318 319 320 317 318 320 322 323 324 326 328 329 330 333 336 339 343 346 346 349 352 350 352 352 351 350 352 353 354 355 356 358 356 357 357 358 359 359 361 359 356 355 354 354 354 355 356 353
298 294 295 296 295 297 298 297 298 297 297 296 296 296 296 296 298 298 298 299 302 300 299 301 305 308 309 311 313 315 316 316 316 317 318 319 320 320 321 319 318 317 317 317 319 320 321 322 326 328 329 330 333 335 338 342 346 349 351 353 356 350 350 353 351 353 353 354 356 358 359 359 358 359 360 361 362 361 359 357 357 357 357 357 356 354
299 295 296 296 294 295 296 296 296 295 295 295 295 295 296 296 296 297 296 298 298 301 301 302 305 307 311 312 314 316 318 317 318 319 320 318 317 319 319 318 318 318 318 318 319 318 320 320 322 325 328 330 330 332 335 337 341 345 347 350 352 352 350 351 351 352 352 352 355 357 359 361 362 360 362 362 362 363 362 359 358 357 357 357 357 358
300 294 295 295 294 293 294 295 296 295 294 293 294 295 295 296 296 297 297 298 298 299 299 300 303 303 310 315 315 317 318 318 319 317 318 318 317 317 318 317 318 318 319 320 320 318 319 319 320 322 324 326 328 330 332 335 338 342 346 348 349 353 353 349 350 349 351 353 355 358 358 359 361 361 361 363 364 364 364 362 359 359 360 359 359 360
299 297 297 295 293 292 293 294 293 295 294 293 293 294 294 294 294 296 297 302 300 299 300 299 299 303 311 315 316 315 316 316 315 316 316 317 316 317 317 317 318 318 319 320 321 321 320 318 318 320 322 324 326 328 329 331 334 337 340 345 349 352 353 353 349 348 351 353 356 358 359 359 362 361 361 362 364 365 366 363 361 361 361 359 358 361
300 296 293 293 291 292 293 293 293 292 293 291 292 294 296 296 298 301 304 306 306 308 301 297 299 311 312 315 313 314 314 315 315 314 315 317 318 316 316 316 317 318 320 320 320 322 321 319 319 320 322 325 326 326 327 329 331 333 335 340 347 353 353 353 355 351 351 352 354 357 359 361 362 361 360 363 364 365 366 364 362 360 359 358 360 360
299 298 295 296 291 293 292 292 294 291 286 288 298 300 299 299 299 298 301 304 307 306 306 309 309 311 311 311 311 312 312 313 315 316 316 316 316 317 316 317 316 318 319 321 321 322 322 322 322 321 323 325 327 327 328 330 330 332 336 340 346 351 356 355 356 358 358 356 355 356 358 360 361 362 362 363 364 364 363 362 361 360 358 357 359 360
298 297 297 296 293 292 293 293 290 285 287 297 301 301 302 302 303 303 305 305 306 307 308 308 308 308 310 310 312 313 314 315 315 316 315 315 317 317 316 316 316 317 317 318 320 322 323 324 324 324 324 324 325 326 327 329 331 334 336 339 343 346 350 355 357 356 357 358 356 355 356 358 359 360 362 363 363 363 363 362 361 360 358 355 355 356
298 297 298 295 296 296 292 292 283 285 295 298 299 302 304 304 305 305 302 305 307 307 308 307 309 309 310 310 311 314 314 314 316 318 318 315 316 317 316 315 316 316 316 317 318 320 321 322 323 323 324 326 324 326 327 327 331 332 334 337 340 342 344 350 354 354 355 357 359 359 358 357 357 359 360 361 362 362 362 362 361 360 360 359 355 356
301 300 299 295 298 291 293 292 290 297 295 296 295 298 302 300 300 300 298 302 306 308 308 308 309 309 309 310 311 312 313 314 315 317 316 314 314 315 316 318 316 316 317 318 318 319 320 322 323 324 325 325 324 326 327 328 331 332 333 335 337 341 341 340 341 345 348 348 350 355 357 360 359 361 360 361 360 360 361 360 360 361 362 359 357 355
303 301 300 295 293 296 292 290 291 290 286 294 302 305 306 306 307 307 299 298 308 308 309 307 308 307 308 309 310 312 311 311 309 312 313 314 314 313 315 317 317 317 317 318 319 320 320 321 322 324 323 324 324 325 328 329 331 332 332 334 335 336 338 338 338 340 340 344 347 352 355 356 356 357 357 359 358 358 359 361 361 362 362 359 357 355
302 302 301 297 295 295 292 287 287 284 290 300 302 303 305 306 305 306 299 293 307 309 308 309 306 307 308 308 309 311 309 304 306 310 312 312 313 314 314 315 316 316 316 317 317 317 318 321 321 321 322 323 321 324 326 330 330 329 331 332 333 334 335 336 336 336 337 339 343 347 353 356 357 356 355 356 357 358 358 359 360 361 361 360 359 359
299 298 298 295 294 295 293 289 287 293 291 300 303 303 304 308 304 303 290 291 305 307 307 308 306 306 307 308 309 308 307 302 305 308 311 311 312 313 313 314 314 315 316 316 317 318 319 323 321 320 319 320 322 324 325 326 328 329 329 330 332 332 332 333 335 336 338 340 342 345 350 354 355 357 357 357 357 358 359 360 360 360 360 361 359 358
296 296 296 292 294 293 290 291 293 295 302 304 304 305 306 306 304 294 287 299 305 307 308 308 307 307 308 307 308 306 308 310 310 310 311 311 311 311 313 314 314 314 315 315 316 319 317 318 318 318 318 320 322 321 323 325 326 328 329 330 331 331 332 334 335 337 337 339 342 345 347 351 354 356 357 358 358 359 359 359 359 360 359 358 359 360
295 296 296 296 292 292 294 290 291 295 302 305 306 306 307 301 290 291 303 308 309 308 309 309 308 308 309 307 308 308 309 310 310 311 310 310 310 311 312 312 313 313 315 316 317 317 316 316 318 318 318 320 320 321 321 324 325 327 329 329 328 330 333 335 337 337 337 338 342 345 347 351 351 353 355 357 359 358 358 358 359 358 359 358 357 358
294 291 290 291 295 294 294 290 288 284 300 306 306 304 305 295 297 304 307 308 308 309 308 308 308 308 308 307 309 309 309 308 309 309 309 310 310 310 311 311 312 312 313 314 315 315 315 316 315 316 317 318 319 321 322 321 324 327 328 328 330 330 331 334 335 336 336 338 340 343 345 347 348 349 353 354 355 355 356 356 358 359 359 358 357 356
298 292 292 294 297 289 289 286 287 297 303 308 304 297 304 304 308 309 307 306 309 308 308 308 308 309 309 308 307 307 308 308 308 309 310 309 310 310 311 312 312 313 313 313 313 315 315 315 316 315 317 317 320 322 323 322 323 325 326 328 331 332 333 333 334 335 336 338 340 341 342 343 345 347 347 349 354 355 353 355 356 358 359 358 357 354
302 296 300 293 301 294 292 297 303 304 306 308 305 304 307 310 311 311 309 307 306 307 310 307 307 308 309 308 307 307 306 307 307 308 308 308 309 309 309 310 311 311 312 312 312 315 315 315 315 315 316 317 320 322 323 324 322 323 325 328 331 331 332 332 333 333 334 336 337 338 340 341 343 343 345 346 348 351 354 354 354 354 357 356 355 354
304 304 306 300 297 303 304 304 306 305 305 305 307 308 307 310 309 309 308 306 307 308 309 307 307 308 308 308 306 307 306 307 308 308 308 309 309 309 311 311 311 312 311 311 313 314 315 314 315 316 315 317 319 321 323 323 323 322 324 327 330 330 330 330 330 331 333 334 337 338 338 339 341 343 345 346 348 350 350 353 355 354 353 354 354 354
303 304 300 296 302 296 291 304 302 303 305 305 305 308 310 310 309 310 308 307 307 308 308 309 308 308 308 308 308 307 307 308 308 308 309 309 309 310 310 310 311 312 312 312 313 314 314 315 314 315 317 317 319 319 320 321 322 323 324 326 327 328 329 330 331 331 332 333 334 336 338 337 338 339 341 344 345 347 350 351 352 353 353 353 351 352
299 306 299 299 299 297 297 302 304 305 306 307 306 305 306 308 309 309 309 309 309 310 309 309 309 308 308 307 308 308 308 309 308 308 308 309 309 309 310 310 311 311 313 314 314 315 315 314 315 315 316 317 319 320 320 320 321 322 323 322 325 327 330 330 329 328 330 331 333 334 335 336 337 338 339 343 344 343 345 349 352 352 352 352 352 351
303 303 295 300 297 300 304 304 304 306 306 306 306 307 307 307 308 308 309 309 309 309 309 309 309 308 308 308 308 308 308 308 308 308 308 308 309 309 310 310 311 312 312 313 313 314 314 314 314 315 316 317 318 319 320 320 321 323 324 325 327 329 328 329 329 330 330 331 332 333 336 336 337 338 339 341 342 342 344 343 346 350 354 357 357 355
302 297 301 300 296 296 297 301 304 298 298 303 306 307 308 308 308 308 309 309 308 308 309 308 308 309 309 308 308 307 306 306 307 308 307 307 308 309 309 309 310 311 311 312 313 313 313 314 314 314 314 315 318 319 319 319 320 323 323 325 328 328 327 327 328 329 328 329 330 331 333 334 335 336 337 337 338 341 342 340 325 334 345 346 342 332
300 302 301 296 296 296 303 304 306 305 305 305 306 308 309 309 309 308 308 308 309 309 309 308 307 308 307 308 309 307 307 306 306 307 306 306 307 308 308 309 309 309 310 311 311 311 312 312 313 314 314 315 317 317 318 320 321 322 324 325 328 327 327 326 325 326 327 328 327 328 329 329 330 335 337 338 339 340 341 341 345 316 311 320 328 323
Wind_Speed
10 10 12 12 11 14 14 13 9 3 6 2 3 8 8 6 7 7 6 8 8 6 6 6 6 3 6 10 10 12 13 12 12 12 12 12 13 13 12 12 13 13 14 13 14 14 15 14 13 11 12 12 13 12 12 13 13 12 11 11 11 10 9 9 8 8 8 8 7 7 7 7 6 5 5 5 4 5 4 5 5 5 5 5 4 4
10 11 12 12 10 12 13 12 4 3 3 5 6 8 8 8 6 6 6 6 6 8 8 4 5 4 3 6 10 12 14 15 14 14 13 14 13 12 13 13 13 13 11 14 14 14 15 13 14 12 11 13 14 12 13 13 13 12 12 12 11 10 10 9 9 8 8 7 7 7 7 6 6 6 6 5 5 4 5 5 4 4 4 5 4 4
11 13 11 13 9 10 11 11 9 6 6 5 6 7 7 9 6 7 6 5 5 5 3 3 4 5 5 7 10 12 14 12 14 15 15 14 14 12 13 13 13 13 14 14 15 16 15 15 15 13 12 12 13 14 14 13 13 13 12 11 11 10 10 9 9 9 8 7 7 7 6 6 5 6 5 5 5 4 5 6 5 4 4 4 4 4
11 12 12 10 8 9 11 12 10 8 6 7 7 7 9 7 9 8 6 7 4 5 1 2 6 1 4 5 10 12 12 11 13 15 14 13 14 15 14 14 13 14 14 15 16 17 16 16 14 13 13 12 13 13 13 14 14 12 11 11 11 10 11 10 9 9 9 8 7 5 5 5 4 6 5 4 3 3 3 5 5 4 4 5 5 5
9 6 10 9 11 13 13 11 10 9 9 8 8 7 9 7 8 4 7 4 4 6 4 4 6 7 5 7 7 10 11 11 12 14 15 15 14 13 13 14 15 14 14 15 16 17 17 17 16 15 13 13 13 13 13 14 13 10 13 12 12 10 11 10 10 10 9 8 8 6 5 5 4 3 5 5 5 5 4 4 5 6 5 5 4 5
10 1 8 11 12 13 13 12 12 11 9 10 10 8 3 2 4 5 3 5 8 9 8 5 6 7 6 5 6 9 10 11 10 12 13 13 13 14 16 16 15 14 14 15 17 17 17 17 16 15 15 15 14 13 13 13 14 13 12 13 12 10 10 10 12 11 9 9 8 8 7 7 7 6 6 6 6 6 6 6 5 6 6 6 5 4
5 9 10 12 13 13 14 11 12 11 9 8 10 13 6 3 4 3 4 5 5 7 8 6 8 6 6 8 6 8 9 10 9 9 10 11 11 14 12 12 14 16 16 15 16 16 18 18 17 17 16 15 15 14 13 13 13 14 13 13 13 11 10 10 11 12 9 9 9 10 9 8 7 7 6 5 5 5 5 4 5 5 6 5 5 6
4 10 11 11 12 13 12 11 12 13 9 8 8 9 8 8 8 7 6 7 5 5 1 4 5 5 7 8 5 5 6 7 7 7 8 10 12 11 12 14 14 16 16 15 17 17 17 18 18 18 17 16 15 14 14 13 13 14 13 14 14 11 10 10 11 12 11 10 10 10 10 8 8 8 7 6 5 4 4 4 5 5 5 6 5 4
12 9 11 12 11 11 12 11 10 12 11 4 7 4 5 6 6 8 8 7 6 2 6 8 4 6 6 7 5 4 8 5 5 6 8 9 11 12 13 13 14 15 15 16 16 17 18 18 18 18 17 17 16 15 14 13 13 13 13 14 13 12 11 11 12 12 12 10 10 10 9 8 7 7 6 6 6 5 5 5 5 4 5 5 5 4
9 11 10 9 10 10 9 13 9 13 12 8 3 3 5 4 4 6 6 7 4 5 9 7 8 7 8 8 6 7 6 6 3 2 5 9 11 13 13 15 15 14 14 15 16 16 17 18 18 18 17 18 16 15 14 14 13 13 13 14 14 13 11 11 13 12 13 12 10 10 10 10 8 7 6 6 6 6 6 6 6 5 4 5 5 6
5 3 2 10 9 5 13 12 10 11 12 1 6 7 8 7 7 7 7 7 6 10 10 10 10 9 7 4 4 2 5 5 4 3 5 2 7 11 12 13 14 15 15 15 15 15 17 17 17 18 19 18 17 15 15 15 14 14 14 14 15 15 11 12 13 13 13 12 11 10 11 12 10 10 8 6 7 6 6 6 7 6 5 4 5 5
9 8 11 3 4 2 1 6 6 8 12 7 7 8 7 8 4 5 7 5 8 10 10 12 9 11 11 7 5 6 5 7 6 5 6 5 5 4 10 11 13 14 15 16 16 15 15 17 17 17 18 18 18 16 16 15 14 14 14 14 16 15 14 13 13 13 12 12 12 11 12 12 11 10 9 9 8 8 8 7 7 6 5 5 5 5
10 10 7 6 4 4 10 9 9 10 10 11 8 10 11 8 8 10 9 11 11 8 10 9 9 6 7 7 7 6 8 8 7 7 7 7 6 6 6 10 11 12 14 15 15 15 16 16 17 18 17 17 17 16 17 16 16 15 14 16 16 15 15 13 13 14 14 13 12 12 12 12 10 10 10 9 9 8 8 7 7 7 6 5 5 6
7 7 9 8 7 3 7 12 9 8 11 13 12 11 12 10 11 10 11 8 9 11 4 10 9 8 10 8 6 8 9 8 9 7 7 8 6 6 6 7 10 12 13 14 14 15 16 16 17 17 17 17 16 18 17 17 15 14 13 15 16 16 16 14 14 14 14 14 13 12 11 11 10 10 10 9 9 9 8 7 8 8 7 7 7 7
9 9 9 8 7 3 8 6 3 4 13 12 11 10 11 7 9 11 10 13 12 10 10 5 8 7 9 6 4 9 8 9 9 9 8 9 8 6 5 4 9 11 13 13 13 15 16 17 18 17 17 17 17 18 18 16 15 14 14 15 16 16 16 15 15 14 15 13 13 12 12 11 10 10 10 9 9 9 9 9 9 8 7 7 6 6
8 5 8 5 6 1 2 2 4 6 9 12 11 9 9 10 4 10 8 11 11 11 11 10 6 1 6 10 7 5 9 10 10 11 11 12 11 9 7 9 4 8 11 11 12 13 16 17 17 16 16 17 17 18 17 18 16 15 14 15 16 16 16 16 15 14 14 14 12 13 13 13 12 10 9 8 8 8 9 9 8 8 7 6 5 6
4 5 5 6 1 1 3 3 3 5 7 11 9 12 7 3 5 1 3 4 10 8 9 9 8 11 10 8 8 8 8 11 12 12 13 13 13 11 10 10 9 9 5 8 13 14 15 16 17 16 17 17 17 18 18 16 16 16 15 15 16 16 15 16 16 15 14 14 13 14 14 13 13 13 12 11 11 11 10 8 8 8 8 8 7 6
5 9 5 7 8 4 1 1 1 4 7 5 10 10 5 2 5 6 7 8 9 10 9 14 11 11 9 7 3 9 9 12 13 13 13 14 14 13 12 11 12 12 11 10 8 13 14 15 16 16 16 17 17 18 18 18 17 16 16 17 17 16 16 16 15 15 14 14 14 14 14 14 14 13 14 12 11 11 10 9 8 8 8 9 8 7
4 8 7 4 5 5 5 2 7 3 1 6 3 6 10 10 11 9 7 11 13 11 8 13 14 7 4 4 6 11 13 13 13 12 13 15 15 14 13 14 12 11 11 11 8 7 12 13 14 15 16 16 17 17 17 18 18 16 16 16 18 18 18 17 14 15 13 14 12 12 14 15 15 13 12 12 11 10 10 11 10 10 9 8 9 7
4 2 8 4 6 7 3 4 7 5 5 2 5 8 1 5 9 11 9 3 9 11 10 11 9 7 6 5 6 7 9 10 11 12 13 14 14 13 13 13 13 11 10 9 7 9 10 12 14 16 16 16 16 17 16 18 17 18 17 17 16 16 17 17 17 15 15 15 13 12 13 14 13 13 12 11 11 11 11 11 10 10 11 10 8 9
4 4 4 7 6 8 4 5 6 5 2 10 9 6 7 8 5 7 9 10 7 9 11 10 13 8 6 4 5 7 7 9 9 10 10 11 12 13 13 13 12 12 11 11 8 7 7 8 12 13 13 12 13 14 15 16 18 17 16 16 17 17 17 17 16 15 14 13 14 14 15 14 14 15 13 14 13 12 11 11 11 10 10 9 9 9
4 7 5 9 9 3 7 5 6 6 7 6 3 2 1 7 11 12 9 7 7 5 6 10 8 9 5 2 4 6 7 8 8 9 9 11 12 12 13 14 14 13 12 12 14 14 7 7 11 9 8 12 15 15 16 15 15 16 17 15 16 16 16 17 16 14 14 13 13 15 14 15 14 14 13 14 13 13 12 11 11 11 10 10 10 10
5 4 4 7 5 7 8 5 3 3 4 6 5 3 3 2 4 8 9 11 8 5 6 7 8 5 6 1 3 7 7 8 9 8 10 11 11 13 13 14 14 15 15 15 16 15 14 17 15 4 11 13 11 12 13 15 14 15 16 16 16 16 17 17 16 15 14 13 13 15 14 14 13 13 15 15 14 14 14 13 12 11 11 12 11 10
7 3 7 7 7 8 5 2 1 2 2 5 5 5 3 1 4 5 6 6 7 8 9 6 5 7 4 1 4 7 8 8 8 9 10 10 11 12 13 14 15 16 16 16 15 14 15 15 15 15 17 6 11 10 13 12 13 14 14 15 15 17 17 17 15 15 15 14 15 16 15 14 14 15 15 15 14 15 15 13 12 12 12 13 12 11
4 2 4 7 7 7 7 6 3 0 2 4 4 5 6 3 3 3 5 2 8 3 7 7 8 6 5 5 5 6 8 9 10 10 10 10 11 11 13 13 14 15 16 18 17 17 18 19 17 15 14 14 11 7 10 10 12 12 13 14 14 14 16 15 15 15 16 16 16 16 15 15 15 15 15 15 14 16 15 14 13 12 13 12 12 12
5 4 4 7 10 10 10 10 8 8 5 5 5 4 6 6 6 3 8 6 5 1 3 9 6 9 8 8 7 8 7 9 10 9 10 10 10 11 12 13 13 14 15 16 17 19 19 15 15 16 15 14 13 13 7 10 11 12 13 13 13 14 11 13 14 15 15 15 15 15 16 16 15 16 16 15 15 15 15 14 14 13 12 12 12 12
1 2 4 5 6 4 7 7 5 3 4 3 5 5 6 6 6 4 3 5 5 6 4 9 10 13 12 10 8 7 7 8 9 9 10 10 11 11 11 11 11 13 14 16 16 16 16 17 18 16 16 15 15 13 12 11 5 12 11 12 13 12 12 13 13 14 14 15 15 14 15 16 15 14 15 14 14 13 13 14 14 14 13 12 12 13
1 2 4 5 7 6 6 7 6 4 4 4 2 4 4 6 6 5 2 1 6 4 6 5 7 13 11 9 8 7 7 8 8 9 9 9 10 10 10 10 13 15 15 15 18 18 17 17 16 17 16 16 15 14 13 10 11 11 6 10 12 12 12 12 14 14 13 13 13 13 15 15 14 14 13 13 12 13 13 13 13 13 12 11 12 13
1 2 3 0 5 5 5 6 5 3 3 3 2 2 3 3 4 3 4 4 5 5 4 10 3 8 10 9 8 7 7 7 8 9 8 8 9 10 11 13 14 14 15 17 16 15 16 16 15 16 15 15 16 16 14 13 12 10 7 9 8 11 12 10 11 13 13 12 11 12 13 12 12 12 12 12 12 12 13 13 12 12 12 12 12 11
2 4 2 1 5 4 4 3 3 2 2 0 1 2 1 1 2 2 1 1 2 4 5 7 6 8 7 8 8 7 5 6 7 6 7 9 10 10 11 12 13 14 15 16 14 15 15 15 15 15 15 15 16 16 15 14 13 11 7 5 4 7 9 10 11 11 13 13 13 13 11 10 10 11 11 12 12 12 13 13 12 12 13 13 12 11
5 4 1 3 3 3 3 1 1 1 2 1 1 0 1 1 1 1 0 1 1 2 3 5 5 5 6 6 7 6 3 5 6 8 9 9 10 11 11 12 12 13 14 13 14 15 14 15 15 15 16 15 15 15 13 13 12 12 10 6 4 4 6 9 10 12 12 13 13 12 12 11 11 11 11 12 12 12 12 12 12 11 11 12 12 11
4 4 3 3 4 4 2 1 1 1 2 4 3 2 3 4 4 5 4 2 3 4 4 4 5 5 7 4 6 4 2 2 5 7 8 8 10 10 11 11 12 12 13 13 14 13 14 14 15 15 15 16 15 14 13 12 12 11 11 12 9 6 5 6 10 12 12 13 11 11 11 12 11 12 11 11 12 12 12 11 12 11 11 11 12 11
1 4 5 4 5 4 5 2 1 4 5 7 7 4 3 2 1 3 2 2 2 3 5 7 3 8 7 4 4 5 1 3 3 6 7 8 9 10 10 11 11 12 11 13 13 13 13 12 13 13 14 13 13 13 13 11 11 11 11 12 11 9 8 6 6 8 11 13 12 11 11 11 11 12 12 12 12 11 10 10 11 12 12 13 12 11
1 2 1 0 4 4 4 1 4 5 7 3 8 5 1 2 2 4 5 4 4 4 3 7 8 5 5 3 2 5 3 3 4 5 5 7 7 8 9 10 12 10 11 11 12 12 12 11 11 12 13 12 13 13 12 10 10 11 11 11 11 9 7 7 8 5 5 8 11 11 11 12 12 12 12 12 11 11 11 11 12 13 11 10 9 10
2 2 1 2 3 3 4 4 4 6 2 7 5 5 2 1 1 1 4 2 3 3 4 4 5 4 2 3 2 3 2 2 2 2 7 8 8 7 8 10 10 11 11 11 12 12 12 12 12 12 13 14 13 12 13 12 11 11 11 11 10 10 9 5 3 4 4 4 7 10 10 10 11 12 12 11 11 11 12 12 12 12 11 11 11 11
1 3 2 3 3 1 3 5 4 1 6 4 4 3 3 1 1 3 5 5 3 3 3 4 6 5 2 1 0 2 3 3 3 3 4 6 7 7 9 8 9 10 11 11 11 11 12 12 12 13 11 10 13 12 12 12 12 12 12 11 10 10 11 9 5 5 4 4 1 4 7 10 11 11 12 12 11 12 12 12 12 12 11 11 11 11
4 2 4 2 1 4 2 4 1 6 5 7 6 6 4 3 4 4 4 8 9 5 5 5 5 5 2 1 1 2 4 3 3 4 8 6 7 7 7 7 9 9 9 9 10 10 11 11 11 11 10 9 10 12 12 12 12 11 10 10 9 9 8 9 10 10 6 5 7 6 5 6 8 9 10 11 11 12 12 12 12 12 10 11 11 12
2 5 2 4 2 5 3 4 4 3 4 6 7 7 3 3 4 3 3 2 8 6 4 4 6 5 4 3 1 3 3 5 7 6 6 5 6 7 6 7 8 9 9 9 9 9 10 11 11 10 10 11 11 11 11 12 11 11 10 10 9 9 7 8 9 8 8 6 5 6 5 5 7 9 10 10 12 12 12 11 11 11 11 12 12 13
1 2 4 5 2 3 4 3 3 3 1 7 6 6 5 3 2 2 3 7 8 6 5 4 5 6 3 2 1 3 7 7 5 7 3 8 8 8 8 8 8 10 9 10 10 10 12 11 10 11 11 10 11 11 9 11 13 12 11 11 10 9 9 9 9 9 8 7 7 7 5 6 7 8 9 10 11 12 13 13 12 11 11 12 11 12
4 4 4 5 5 4 5 3 3 2 1 6 7 6 6 3 3 6 7 3 9 4 4 3 3 4 3 2 3 4 5 7 4 7 8 10 10 10 9 9 9 9 10 10 10 10 11 9 10 10 11 10 11 11 11 10 10 12 12 12 10 10 10 10 10 10 8 7 7 6 6 6 5 7 9 11 11 11 12 12 12 13 12 12 11 12
5 4 4 6 5 3 3 5 5 1 5 7 7 7 6 3 4 7 8 5 5 5 4 4 4 4 4 4 3 4 2 5 9 10 10 12 12 12 10 10 10 9 10 11 10 11 9 9 9 10 11 9 9 10 10 9 9 10 11 11 12 12 12 11 11 11 10 9 8 6 6 6 5 5 7 8 9 11 12 11 12 13 13 14 12 12
4 3 4 4 6 5 4 5 4 2 7 6 7 6 6 5 6 5 7 7 6 6 4 3 1 2 3 4 3 3 3 3 6 6 8 9 9 11 12 12 11 11 10 9 10 10 9 9 10 11 10 10 10 10 10 9 9 9 9 10 12 13 11 12 11 11 11 10 9 8 7 8 6 5 5 5 6 8 9 11 11 11 12 12 13 13
3 5 5 6 4 2 3 5 2 5 4 4 9 6 5 8 2 6 6 3 2 1 1 3 3 2 2 4 4 4 5 5 5 7 7 7 8 10 11 12 12 12 12 12 11 10 10 10 10 10 11 10 10 9 9 10 10 9 9 9 10 10 12 11 11 11 11 10 9 9 10 9 8 7 6 6 6 6 7 7 9 11 11 11 10 13
0 6 4 4 3 3 5 5 3 3 8 9 8 3 6 8 4 2 3 5 4 3 4 3 4 3 3 4 6 6 6 6 6 5 5 6 8 9 10 11 12 12 12 12 12 12 12 11 10 10 10 10 9 8 8 9 9 9 10 10 9 9 10 11 10 11 11 9 8 8 8 9 9 7 6 7 8 7 7 8 8 9 9 10 11 12
8 7 4 2 4 6 2 2 7 4 5 6 4 2 4 2 2 2 2 3 4 5 5 5 5 3 3 4 5 7 7 6 6 6 7 7 8 9 10 11 12 13 13 13 13 13 12 11 13 12 12 10 9 8 8 8 9 10 10 10 9 9 8 9 9 10 11 10 9 8 8 8 8 7 6 6 7 8 8 8 8 7 7 9 11 12
2 3 2 5 5 5 9 9 3 2 3 5 5 4 3 5 4 3 5 5 4 5 4 5 4 3 4 3 6 6 6 7 8 8 8 8 8 9 9 10 11 12 14 14 13 13 13 13 13 13 13 11 10 9 8 8 8 10 10 9 9 9 9 8 8 9 9 10 10 9 8 9 8 7 6 6 5 6 7 8 8 7 7 9 9 10
7 5 5 6 1 1 3 4 9 9 8 8 7 6 6 6 6 4 4 5 5 5 5 5 5 5 5 5 6 7 8 8 9 9 9 8 8 9 10 10 11 12 13 14 13 13 13 13 13 13 13 13 11 10 9 9 9 9 9 9 10 10 9 10 9 8 8 9 10 10 9 9 7 7 8 7 6 5 5 7 8 9 9 9 9 10
7 9 7 9 8 8 8 2 2 2 3 4 5 7 9 9 9 7 5 5 5 4 5 5 5 7 6 7 6 7 8 8 9 10 9 9 9 9 10 10 11 12 12 13 14 13 13 13 13 14 14 13 11 10 10 10 10 10 10 10 10 10 10 10 9 9 9 10 9 9 9 10 9 9 7 7 6 6 5 6 7 9 9 9 10 10
4 10 5 5 8 9 11 12 10 8 9 9 9 10 8 6 6 6 7 7 6 7 7 7 6 6 6 6 6 7 9 9 10 10 11 10 11 10 10 11 11 12 12 13 13 13 13 13 14 14 14 14 13 12 11 11 11 10 11 9 8 8 9 9 11 10 10 9 8 8 8 9 9 7 7 8 8 6 6 6 7 8 9 10 9 10
6 8 5 5 9 9 9 6 4 8 8 9 13 12 11 10 8 7 7 8 8 8 7 8 7 7 7 7 9 9 11 11 12 12 13 12 12 12 12 12 12 13 13 13 12 13 14 14 15 16 16 14 13 12 12 13 11 11 11 10 8 7 8 9 10 10 9 8 8 8 7 7 8 8 8 8 8 7 7 8 10 11 10 11 9 9
10 10 8 9 8 8 4 5 4 7 9 9 7 5 9 9 9 10 9 9 8 8 7 7 8 7 8 9 8 9 11 12 14 13 14 13 13 13 13 14 14 13 13 13 14 14 14 15 15 16 17 15 14 14 13 12 12 11 11 10 9 9 8 9 9 9 9 8 8 8 8 8 9 8 8 8 9 9 8 9 8 11 15 15 14 14
Wind_Direction
171 202 196 203 200 197 200 207 217 67 356 94 195 192 199 204 110 104 131 130 185 189 244 209 233 265 144 166 163 167 172 184 186 187 188 186 183 187 194 194 192 186 186 178 178 181 180 179 177 180 175 180 181 180 177 177 179 182 177 173 171 172 175 170 172 175 180 175 176 176 182 177 171 177 173 182 177 176 160 141 155 162 165 163 169 168
194 217 208 207 209 193 196 203 212 202 192 229 190 202 175 214 150 110 118 166 168 228 185 215 239 220 209 163 164 171 176 184 185 185 190 190 188 188 194 196 195 181 187 176 176 182 182 181 176 177 176 180 180 181 179 182 182 182 182 178 172 171 177 180 178 175 182 177 180 177 181 179 169 169 179 172 180 174 142 145 158 180 162 162 173 175
204 216 208 204 207 199 187 195 208 219 201 204 222 189 219 199 117 130 124 180 173 233 167 157 230 203 187 177 173 183 190 188 186 185 187 189 190 188 198 194 196 186 187 180 180 182 183 182 177 177 178 182 184 180 181 183 183 183 186 182 177 175 177 182 180 179 181 179 182 186 175 184 166 173 175 167 168 167 156 156 167 172 165 175 179 176
200 213 217 182 186 186 180 194 199 213 231 209 208 209 205 166 189 170 123 147 155 262 325 110 261 212 157 170 182 188 193 191 190 186 182 187 191 191 197 195 193 194 185 188 185 184 184 182 180 179 179 182 183 180 182 183 183 183 187 183 181 178 179 179 180 184 177 176 171 186 173 179 176 170 164 161 150 173 174 163 162 171 174 188 180 177
205 199 187 168 187 195 184 184 195 206 203 214 224 210 212 158 211 314 119 177 170 213 247 254 247 226 163 176 185 184 194 195 187 192 186 190 191 196 200 186 194 196 189 189 188 188 186 184 183 182 182 182 185 185 184 185 183 186 185 183 182 182 182 178 175 179 174 169 171 175 170 175 170 168 180 182 183 184 181 195 175 174 180 180 191 170
201 84 140 186 187 197 196 188 203 205 213 203 214 237 233 133 203 173 154 223 208 193 182 266 253 207 150 193 189 165 183 195 185 192 193 194 194 195 195 198 183 193 195 197 191 190 188 186 183 183 184 187 187 188 187 188 184 186 183 182 182 183 185 183 175 177 175 174 177 179 184 187 188 188 191 194 190 183 179 197 176 165 182 176 183 173
197 155 183 191 194 194 202 207 192 217 223 210 195 205 226 234 226 223 216 234 218 218 125 248 265 161 194 182 171 157 174 182 179 197 196 198 195 196 198 207 198 186 197 196 199 193 190 188 187 185 187 190 191 188 187 189 186 186 182 182 182 183 185 184 177 177 178 179 187 189 193 194 191 194 194 200 197 185 177 188 175 164 172 175 190 172
191 167 188 192 193 198 199 206 192 203 224 210 83 181 209 224 229 225 235 240 279 4 96 234 247 272 184 122 94 133 146 158 174 183 208 195 203 213 205 198 197 202 194 191 193 195 196 190 190 189 187 193 193 187 187 189 188 185 184 181 183 184 184 184 179 179 182 186 188 190 197 197 201 201 193 190 200 181 180 173 187 174 174 169 199 175
178 165 186 182 198 199 205 206 168 197 222 203 129 198 203 213 233 235 225 229 251 316 228 192 185 233 234 114 96 171 133 137 156 189 195 210 207 204 210 212 205 205 201 195 194 195 196 192 192 190 190 193 195 190 188 189 187 184 185 184 183 184 182 183 182 181 184 191 190 192 193 198 202 207 199 191 195 189 185 180 187 186 176 168 181 194
202 197 178 194 195 203 207 200 186 189 213 217 93 219 233 215 237 238 226 230 198 226 231 209 178 237 210 132 143 89 80 91 77 119 201 201 208 208 205 205 207 204 204 203 200 199 198 193 193 191 190 191 195 192 187 188 186 182 183 185 184 185 185 182 183 185 186 191 191 193 198 196 196 202 206 198 190 196 190 192 186 186 192 183 178 181
114 163 230 205 203 223 192 197 190 194 222 310 187 213 195 196 208 209 233 220 210 229 225 213 193 233 198 62 79 28 36 31 0 46 24 333 205 211 215 209 203 202 202 202 203 198 200 196 193 190 192 191 192 193 187 188 186 182 181 182 184 185 184 182 182 186 189 191 194 197 197 197 196 196 198 199 196 196 195 200 193 191 192 203 186 187
182 166 200 134 321 15 276 162 196 212 214 211 200 202 177 184 173 199 202 197 220 225 213 214 205 200 242 136 95 77 75 40 11 16 14 352 344 244 213 218 212 205 202 201 198 192 205 200 196 196 195 191 192 192 187 190 185 184 182 181 183 184 185 183 183 185 190 193 197 203 199 199 200 196 198 202 201 200 202 203 200 197 196 203 194 202
176 185 120 129 57 249 195 228 174 204 207 208 203 201 192 168 187 197 189 197 214 220 203 193 200 192 224 72 72 77 43 38 27 15 7 359 344 319 290 223 210 211 207 203 200 196 197 195 196 197 196 192 191 193 189 190 188 185 183 181 181 184 185 184 186 187 190 194 199 201 202 202 201 201 205 204 206 204 205 205 202 196 202 200 208 201
132 122 176 140 190 152 228 213 167 193 196 199 204 189 197 181 189 198 193 206 197 218 94 203 176 229 100 96 58 66 51 36 29 30 21 11 353 335 294 272 215 208 209 206 202 199 196 195 194 196 195 194 192 194 190 192 190 185 184 182 183 184 184 185 187 189 190 194 198 198 202 202 200 204 205 206 207 206 207 205 210 206 201 202 211 206
148 175 173 190 173 113 225 255 331 237 183 203 207 198 208 205 194 194 192 196 196 192 174 152 182 180 198 115 66 76 63 41 38 33 29 25 10 352 338 248 227 208 207 208 208 202 200 196 193 193 194 193 193 194 192 192 190 185 185 181 185 184 183 185 187 188 191 194 195 197 200 201 201 204 205 209 211 210 208 208 206 211 215 212 209 212
198 107 89 51 39 318 277 353 278 284 180 198 200 211 218 222 213 219 191 200 184 185 174 177 211 224 123 114 93 73 68 53 38 35 28 26 24 20 16 18 351 209 204 210 206 216 207 199 193 192 193 193 192 192 195 192 189 187 185 183 186 184 183 185 186 188 191 194 194 195 198 200 202 203 207 208 210 214 214 210 213 204 215 223 212 206
125 127 112 99 195 75 19 304 217 275 219 160 205 205 204 4 257 172 338 197 202 196 193 167 141 105 133 132 73 63 50 45 35 29 27 25 22 25 24 11 3 355 313 222 209 211 207 205 197 196 195 193 191 191 194 193 190 188 184 184 185 187 185 186 186 188 190 192 193 196 197 199 200 202 206 207 207 211 209 213 212 212 211 212 221 214
259 111 139 167 139 95 66 258 358 192 301 188 200 200 106 349 326 285 197 171 208 191 183 183 171 143 172 154 43 35 26 27 26 25 22 27 20 21 21 16 6 351 335 329 295 216 208 207 205 200 200 197 193 192 192 191 191 189 190 186 185 187 188 189 189 191 190 190 194 195 197 200 204 206 209 213 211 211 214 209 215 219 213 216 213 215
311 136 126 118 108 127 165 176 172 167 282 306 334 92 198 184 210 206 270 186 197 201 177 188 186 124 237 101 16 25 15 11 16 20 22 22 20 18 12 13 11 3 351 334 312 262 208 204 208 206 204 205 198 196 194 190 191 191 193 193 192 190 190 190 192 192 192 192 194 195 198 200 203 208 210 213 214 215 215 216 209 216 217 214 214 212
269 258 126 143 177 143 154 257 191 152 169 263 229 203 199 282 210 195 222 238 210 204 205 171 171 168 66 64 16 34 25 15 14 20 23 20 18 17 15 13 8 6 6 344 305 268 226 204 207 207 207 205 204 203 196 194 193 196 196 196 198 196 193 193 194 190 193 195 196 196 196 199 202 204 208 207 209 212 213 213 216 214 214 216 215 211
241 283 157 129 136 193 171 17 60 358 192 181 203 201 192 229 7 308 201 238 218 216 205 178 199 124 92 37 37 43 39 32 22 26 27 21 20 17 18 15 12 15 10 5 355 234 244 217 205 205 206 216 218 205 198 196 198 199 198 199 200 199 198 198 199 193 194 195 198 195 195 196 197 202 203 206 205 210 212 214 217 217 219 210 217 216
249 213 213 140 179 130 78 62 29 21 6 7 313 117 319 205 200 202 202 206 249 261 227 191 193 101 89 48 59 55 51 47 35 34 32 27 20 22 18 17 21 17 17 16 15 18 0 234 205 195 200 213 210 212 200 203 199 200 201 201 201 201 201 203 200 199 194 196 197 198 197 198 196 199 201 205 205 208 210 215 214 217 215 217 212 217
338 323 237 152 92 103 99 82 39 24 353 29 16 56 298 301 281 220 224 188 224 239 330 265 135 113 90 159 75 73 70 59 49 41 42 31 28 24 19 20 19 19 20 20 20 20 22 23 18 336 206 203 214 217 211 205 205 204 202 203 201 201 202 204 202 198 194 196 196 199 199 199 197 196 201 205 207 210 212 211 214 211 214 217 216 210
290 225 114 94 105 122 138 100 350 355 264 198 72 27 352 25 340 323 346 339 227 183 217 226 200 120 124 61 107 91 77 73 68 52 47 46 34 23 23 22 19 18 20 22 24 26 26 23 20 20 15 341 214 210 218 207 213 212 208 205 203 204 204 203 202 197 194 196 199 198 198 199 201 200 201 205 209 213 213 213 209 208 213 215 219 214
276 99 275 139 157 159 168 178 174 144 201 58 59 48 13 19 328 314 316 281 246 87 312 238 210 147 130 199 126 101 81 70 65 59 53 48 36 30 27 25 23 21 21 22 26 28 26 25 23 17 6 8 7 220 221 222 216 217 212 208 208 208 206 205 202 199 195 198 201 199 201 201 201 203 204 208 212 213 213 215 213 206 211 214 218 219
307 30 307 211 183 178 185 193 179 169 131 101 61 56 37 14 7 281 213 185 230 101 273 250 101 112 136 147 128 105 95 76 60 61 65 55 52 42 31 26 23 26 27 24 26 27 26 23 22 17 12 11 12 14 334 237 229 221 215 212 212 211 210 213 204 205 199 200 202 201 201 201 203 205 206 210 213 215 216 215 216 213 207 214 216 218
36 30 13 360 347 14 46 51 41 9 156 156 85 45 37 16 1 316 330 222 220 160 130 45 121 133 142 137 131 107 87 66 65 61 50 50 51 53 48 38 33 30 27 29 30 27 24 25 19 17 14 9 14 6 9 10 274 235 222 223 216 209 193 217 221 207 207 203 205 203 205 202 204 205 207 207 213 215 217 220 219 218 215 208 214 215
195 163 53 28 46 62 72 68 59 20 88 78 55 60 30 20 3 345 322 91 15 243 118 83 126 149 127 133 123 105 80 73 65 50 47 48 47 44 45 48 44 37 29 26 28 26 23 21 17 17 13 11 9 8 10 9 16 3 329 241 220 221 212 201 211 215 209 209 208 207 206 207 204 206 206 207 207 213 216 217 219 220 220 214 212 216
320 140 68 139 93 76 54 59 45 66 58 52 45 25 31 20 10 32 63 37 358 347 100 127 81 138 132 121 112 82 60 67 61 48 41 45 43 46 45 42 41 38 34 28 22 22 21 18 14 10 14 14 10 8 8 7 9 1 1 3 320 236 223 214 209 211 208 213 216 209 208 208 208 206 204 205 204 207 213 216 215 216 218 217 219 219
280 74 73 108 121 95 83 62 44 25 46 231 97 68 43 354 37 29 62 32 356 89 103 122 121 116 132 123 101 82 73 66 55 56 45 37 43 38 42 43 38 38 35 29 21 20 17 14 12 10 7 11 12 8 7 5 359 352 352 7 340 300 248 221 215 214 214 205 209 215 211 208 207 205 202 201 203 203 206 211 213 214 214 215 216 220
295 108 221 163 151 115 78 142 133 7 4 262 128 143 162 142 190 181 357 123 151 166 91 133 143 153 109 104 114 127 89 63 42 41 45 31 33 37 40 38 37 35 33 29 28 22 14 13 10 8 6 5 7 6 8 4 353 353 347 324 311 342 296 254 225 221 221 220 215 212 203 200 203 201 201 201 202 203 205 210 213 214 214 214 216 219
282 121 202 228 214 142 143 147 196 294 270 260 228 198 196 191 201 172 196 133 229 140 163 173 197 175 119 137 123 116 126 63 49 20 40 31 26 34 35 36 35 31 26 24 26 22 18 13 9 7 5 0 359 359 359 354 355 355 352 340 323 288 280 274 240 222 226 228 224 218 211 207 198 198 199 198 203 204 205 209 212 215 213 215 216 214
21 151 185 194 229 130 121 219 323 251 237 226 206 157 158 191 348 85 69 74 342 9 186 206 143 71 97 108 154 115 47 131 71 29 18 37 30 26 32 34 32 28 28 23 19 20 19 16 11 4 0 359 356 353 348 346 349 348 342 331 327 307 271 273 274 263 229 225 230 222 219 218 206 198 200 201 202 200 204 207 212 217 219 220 220 221
181 248 217 259 265 124 150 205 251 240 225 147 74 82 8 64 157 204 167 152 126 251 26 16 81 98 98 131 89 72 47 48 56 71 42 40 23 25 27 35 25 26 27 22 18 16 12 13 11 6 356 356 356 352 343 348 348 344 333 332 326 325 305 285 278 306 312 243 224 224 219 222 221 211 206 205 204 202 203 207 210 218 222 228 228 228
166 225 161 210 252 157 154 208 224 237 157 90 106 90 97 82 169 264 98 157 141 135 120 125 100 105 65 45 61 38 31 85 157 157 55 46 33 26 23 26 22 24 21 17 17 14 10 7 4 7 2 356 355 352 349 349 348 343 343 341 341 336 316 297 296 265 269 251 234 227 222 220 224 229 224 215 208 206 206 206 211 215 216 220 221 222
194 222 141 212 260 129 221 197 232 109 87 159 106 104 74 272 44 174 173 161 190 182 176 153 124 118 143 130 18 353 327 337 138 216 109 56 48 37 19 14 18 16 15 13 9 13 8 6 3 2 358 360 349 353 352 349 346 347 344 341 347 356 356 350 336 303 344 3 22 234 229 231 232 229 226 221 216 212 208 208 211 215 212 217 225 228
314 305 253 201 179 244 220 222 278 90 182 159 182 181 185 186 183 235 260 175 165 171 222 161 151 145 171 192 192 324 332 277 187 180 97 64 44 37 20 13 6 5 7 4 4 5 7 3 358 358 351 3 359 350 352 347 348 343 342 342 344 347 359 1 3 360 10 14 328 324 292 263 246 232 230 229 223 220 217 213 212 213 212 217 222 223
298 296 36 278 163 278 270 236 225 197 250 150 98 103 68 75 37 46 299 235 157 174 191 184 162 159 207 212 223 290 294 253 233 158 75 51 26 17 12 11 355 354 357 354 352 351 357 359 350 352 350 351 6 358 348 346 346 344 345 345 343 340 353 352 357 357 355 351 345 323 307 258 241 243 238 238 236 233 230 226 221 219 213 216 218 223
268 266 283 275 249 208 248 257 241 248 120 84 127 120 123 107 166 262 239 251 151 145 144 230 201 147 235 229 256 277 257 231 214 104 30 12 4 355 353 349 349 345 342 346 343 352 348 347 344 341 344 351 2 350 351 350 344 349 345 346 341 341 345 349 349 348 345 340 326 318 303 291 270 253 250 245 241 242 241 235 229 225 222 224 222 227
219 210 224 236 251 236 264 254 263 244 227 135 127 143 129 140 135 232 247 205 120 156 135 178 202 185 198 233 277 266 264 236 220 40 353 348 347 333 339 336 335 335 332 334 339 352 337 328 332 338 341 350 354 341 351 352 353 345 345 343 340 343 345 347 340 337 332 323 315 308 300 273 261 265 257 251 248 246 245 245 243 238 232 228 231 237
196 210 220 247 247 190 210 263 266 211 133 137 150 139 130 140 235 238 240 102 177 140 179 148 228 172 220 247 254 270 265 300 332 328 339 333 325 324 325 325 321 327 325 325 337 339 321 329 331 333 329 346 336 338 347 346 347 345 343 338 338 341 340 338 333 331 331 325 312 307 306 302 271 259 265 258 253 252 248 243 241 240 236 233 232 233
224 240 230 248 251 251 236 251 245 270 67 129 149 157 146 205 210 240 72 142 136 143 137 165 200 185 230 251 269 277 307 297 286 301 305 311 317 315 316 319 323 323 323 326 327 314 321 321 325 319 325 330 330 337 340 338 344 332 338 336 339 333 335 329 329 328 327 322 319 316 314 317 319 272 250 280 294 280 263 250 242 241 237 235 233 232
188 201 214 205 220 244 258 247 259 255 120 166 136 164 180 234 49 88 138 89 97 252 172 224 250 264 267 276 271 286 288 291 303 312 307 305 312 313 317 319 321 322 323 325 318 324 322 318 316 316 318 322 327 333 327 332 333 328 330 328 335 329 326 329 325 324 321 321 323 327 319 312 312 322 321 280 247 253 267 263 254 241 229 227 229 232
130 243 229 210 201 251 211 215 236 48 105 151 167 247 168 224 65 124 20 211 178 237 246 262 244 256 290 287 295 299 300 294 295 285 302 305 306 313 311 313 314 314 316 315 318 320 325 312 309 309 311 313 318 317 321 321 321 319 319 320 328 324 322 323 326 322 320 321 326 323 311 303 310 313 307 316 307 279 251 250 249 242 231 227 224 232
176 228 351 305 150 239 292 335 70 112 138 165 223 281 353 77 165 200 271 301 286 259 246 268 281 252 249 277 290 289 282 294 300 309 305 310 307 306 312 313 312 311 311 312 314 316 312 312 310 308 303 304 305 310 309 307 305 310 307 315 316 318 316 320 319 320 314 315 316 312 304 301 299 296 292 281 280 288 283 257 250 257 248 232 230 232
54 294 33 278 257 257 278 273 269 230 188 220 214 258 236 182 206 219 255 275 263 277 278 263 282 274 260 259 278 276 289 303 304 304 306 307 308 306 306 304 303 307 306 307 308 312 313 308 304 302 303 303 302 298 297 292 295 299 305 306 308 309 314 317 314 310 312 312 307 301 304 304 301 291 282 272 264 266 273 279 267 251 246 248 241 235
217 190 209 234 230 336 261 170 233 243 240 231 247 222 217 229 232 221 245 249 268 253 243 246 257 261 259 264 255 280 293 292 295 301 304 304 303 308 305 307 306 303 304 304 307 309 306 306 302 302 302 301 301 299 293 291 289 293 294 294 297 304 313 314 307 306 305 305 306 307 304 298 302 315 305 292 278 261 266 271 267 262 253 247 251 249
204 179 228 234 241 234 255 268 216 258 254 265 249 233 222 221 227 231 236 246 247 241 246 251 240 248 255 250 258 276 283 290 296 299 301 303 307 308 304 301 302 300 299 298 299 300 298 297 297 297 299 298 301 299 295 288 285 284 289 292 297 305 310 304 307 309 307 305 306 302 305 303 309 304 297 296 293 289 282 270 267 259 251 247 243 246
100 144 230 196 227 239 247 259 259 240 239 235 228 233 245 243 225 216 216 220 219 226 227 231 233 258 255 266 282 278 282 291 296 301 303 305 303 303 305 304 299 298 297 295 296 295 292 294 294 294 293 292 294 294 291 288 283 284 284 281 279 288 295 300 302 303 303 301 296 296 297 296 295 294 299 299 293 282 278 283 280 278 273 260 254 251
178 226 218 236 246 247 252 262 242 251 252 227 213 218 226 226 225 224 213 217 220 223 223 229 232 229 247 272 276 277 282 289 292 295 297 301 301 302 303 301 300 297 294 292 290 288 287 286 288 290 290 289 289 287 286 284 280 277 277 276 265 264 274 287 295 295 294 297 298 295 301 303 302 304 303 298 295 291 283 259 248 262 275 282 279 276
220 235 239 240 248 260 282 292 287 276 277 300 317 236 216 219 217 220 216 217 219 217 216 226 237 242 257 262 262 278 284 288 292 297 297 297 300 303 300 300 298 295 292 293 289 286 284 284 285 286 286 286 286 282 280 279 276 271 269 265 261 261 260 270 279 286 289 292 293 308 313 304 300 303 304 302 298 298 301 299 274 239 240 246 257 259